GFSNE_925_temp_258.txt.gz
Temp
17 17 17 17 16 16 15 15 14 15 12 13 12 14 13 12 11 12 14 14 14 14 13 12 11 11 10 9 9 8 8 8 8 8 8 8 8 9
17 17 17 17 17 16 15 14 14 14 14 15 13 14 14 13 12 13 14 14 13 13 12 12 11 10 9 9 8 7 7 7 8 8 8 8 8 8
17 16 16 16 16 15 15 14 13 13 13 14 14 15 14 14 13 14 14 14 13 12 12 11 10 10 9 8 7 7 7 7 7 8 7 7 6 5
17 16 16 15 15 15 14 13 13 13 13 13 13 14 15 15 14 14 13 13 12 12 11 11 10 9 8 8 7 7 7 7 7 6 6 5 6 5
17 17 16 15 14 14 14 13 13 13 12 12 12 13 14 15 14 13 13 12 12 11 11 10 9 8 8 7 7 7 6 6 5 5 5 5 5 5
15 15 15 14 14 13 13 13 12 12 12 11 12 12 13 13 13 11 11 11 10 10 10 9 9 8 8 8 7 7 6 6 5 4 3 3 3 3
11 12 13 13 14 13 13 13 12 12 12 11 11 10 10 10 10 10 9 9 8 8 9 8 8 8 8 8 7 6 6 6 5 4 4 5 4 3
7 8 9 9 10 10 11 11 11 11 11 11 11 9 8 10 8 8 7 6 5 8 7 7 7 7 7 7 6 6 6 5 5 5 5 5 4 3
5 5 6 6 7 7 7 7 6 7 7 8 10 9 7 8 8 6 6 7 6 7 6 6 7 6 6 5 5 5 5 5 5 5 5 4 4 5
3 3 3 3 3 4 5 5 5 5 4 5 5 5 5 5 5 5 5 5 5 6 5 4 5 5 5 5 4 3 3 5 5 5 5 5 6 9
2 2 2 2 3 3 3 3 4 3 4 4 4 4 5 4 5 5 4 5 2 3 3 4 3 3 4 3 2 2 3 4 5 4 3 3 5 9
3 2 2 2 2 2 2 1 2 1 2 2 3 3 3 3 3 4 4 4 3 3 3 4 3 3 1 2 2 2 2 3 4 3 3 3 3 5
2 2 2 2 2 2 1 1 0 1 1 1 1 1 2 3 3 3 3 3 3 3 3 3 2 2 1 1 1 1 2 2 3 3 3 3 2 2
1 1 1 2 2 2 1 0 0 0 0 1 1 1 1 1 2 2 2 2 2 2 2 2 2 2 1 0 0 1 2 2 3 3 3 4 3 2
1 2 1 1 1 2 0 -1 0 0 0 0 0 0 0 0 1 1 1 1 1 1 1 1 1 1 1 1 0 0 0 1 1 1 3 3 3 3
1 2 1 1 1 1 0 -0 -1 -1 -0 -0 -0 -0 0 0 0 0 0 -0 -0 -1 -0 -0 0 0 0 0 0 -0 0 0 1 1 2 1 2 2
0 0 -0 0 0 0 0 0 -0 -1 -0 -0 -0 -0 -0 -0 -0 -0 -0 -1 -1 -1 -1 -1 -1 -0 -0 -0 -1 -1 -0 -0 0 0 1 1 1 1
-1 -1 -1 -1 -1 -1 -0 -0 -0 -0 -1 -0 -0 -0 -0 -1 -1 -1 -1 -1 -1 -1 -1 -2 -1 -1 -1 -1 -1 -1 -1 -0 -0 -0 0 0 -0 0
-1 -1 -1 -1 -1 -1 -1 -1 -1 -1 -0 -1 -1 -1 -1 -1 -1 -1 -1 -1 -1 -1 -1 -2 -1 -0 -0 -1 -2 -1 -1 -1 -1 -0 -0 -1 -1 -1
-1 -1 -1 -1 -1 -1 -1 -1 -1 -1 -1 -1 -1 -1 -1 -1 -1 -1 -1 -1 -1 -1 -2 -2 -1 -0 -0 -1 -2 -3 -1 -1 -1 -2 -2 -1 -1 -0
-2 -1 -1 -1 -1 -1 -1 -1 -1 -2 -1 -1 -2 -1 -1 -1 -1 -1 -1 -1 -1 -1 -2 -2 -1 -1 -0 -1 -2 -2 -2 -1 -1 -1 -1 -1 -2 -3
-3 -3 -1 -1 -1 -1 -1 -1 -2 -1 -1 -1 -2 -1 -2 -1 -1 -1 -1 -1 -1 -1 -1 -1 -1 -1 -1 -1 -2 -3 -3 -2 -2 -1 -1 -1 -1 -2
-4 -3 -2 -2 -1 -1 -1 -1 -1 -2 -2 -2 -2 -2 -2 -1 -1 -1 -1 -1 -1 -1 -1 -2 -1 -1 -1 -2 -2 -2 -3 -2 -2 -1 -1 -1 1 0

GFSNE_925_temp_261.txt.gz
Temp
19 18 18 17 17 17 17 16 15 15 12 14 13 15 16 16 15 14 13 11 12 12 13 14 13 13 12 11 11 10 9 9 9 9 9 8 8 7
19 17 17 17 17 16 16 15 15 15 15 15 15 16 15 14 16 15 13 12 12 13 14 13 13 12 12 11 10 9 9 9 8 8 8 8 8 7
17 17 18 17 16 16 15 14 14 14 14 15 15 15 14 14 15 15 14 11 12 13 14 13 12 12 11 10 10 9 8 8 8 8 7 7 6 5
14 15 15 15 16 15 15 14 14 14 14 13 14 14 14 13 14 14 14 12 12 13 13 12 12 11 10 10 9 8 8 7 7 7 7 6 6 5
12 12 13 14 15 15 14 14 13 13 13 13 13 13 13 13 13 12 13 12 12 13 13 12 11 10 9 9 8 8 7 7 7 6 6 6 5 5
8 8 8 8 8 9 10 12 13 13 13 13 13 12 12 12 12 11 9 10 10 12 11 11 10 9 9 8 8 8 7 7 6 6 6 5 5 4
6 5 5 6 7 6 7 8 9 9 10 12 12 11 11 10 11 10 10 9 9 10 9 9 8 8 7 7 7 7 7 6 6 6 5 5 4 5
3 3 4 4 5 4 5 5 5 5 6 7 8 9 10 10 11 10 9 7 6 7 7 6 7 7 7 6 6 6 6 6 5 5 4 5 5 4
2 3 3 4 4 4 5 4 4 4 4 4 4 5 5 6 8 8 8 8 7 6 6 5 6 6 5 5 6 6 6 5 4 4 5 5 5 4
2 2 2 2 2 3 3 4 3 4 3 3 4 4 5 5 5 5 5 5 5 6 6 3 4 4 4 5 5 5 4 4 4 5 6 5 5 4
3 3 2 2 2 2 2 1 2 2 2 3 3 3 4 4 4 5 5 5 2 3 4 4 3 3 4 4 4 3 3 3 3 3 3 3 4 4
2 3 2 2 1 1 1 1 0 0 1 1 1 2 2 3 3 3 3 3 2 2 3 3 2 3 1 1 3 2 2 2 3 3 3 3 4 2
0 1 1 1 2 2 1 0 -0 0 0 1 1 1 2 2 2 3 3 3 3 3 3 3 2 2 2 1 2 1 2 3 3 2 2 2 2 3
-0 1 1 1 1 1 0 -1 -1 -1 -0 0 1 1 1 1 1 2 2 3 3 3 2 2 2 2 1 0 0 1 1 2 3 2 1 1 1 2
-0 0 1 0 0 0 0 -0 -1 -1 -1 -1 -0 -0 0 1 1 1 1 1 1 1 2 2 2 1 1 1 0 0 0 1 2 2 1 1 1 1
-1 1 -0 -0 -0 -0 0 0 -0 -0 -1 -1 -1 -0 -0 0 0 0 0 0 0 0 0 0 0 0 0 0 0 -0 0 0 1 1 1 1 0 0
-1 -0 -0 -0 -0 0 0 0 -0 -0 -1 -1 -1 -1 -0 -1 -0 -0 -0 -1 -1 -1 -1 -1 -1 -0 -0 -0 -1 -1 -0 -0 0 0 1 1 -1 -0
-1 -1 -1 -1 -1 -1 -1 -1 -0 -1 -1 -0 -0 -1 -1 -1 -1 -1 -1 -1 -1 -1 -1 -1 -1 -1 -1 -1 -1 -1 -1 -1 -0 -0 0 -0 -1 -1
-2 -2 -1 -1 -1 -1 -1 -1 -1 -1 -1 -1 -1 -1 -1 -1 -1 -1 -1 -1 -1 -1 -1 -1 -1 -1 -0 -1 -2 -1 -1 -1 -1 -1 -0 -1 -2 -1
-3 -3 -3 -2 -1 -1 -1 -1 -1 -1 -1 -1 -1 -2 -2 -2 -1 -1 -1 -1 -1 -1 -2 -2 -1 -1 -1 -2 -2 -3 -1 -1 -1 -2 -2 -2 -3 -2
-5 -4 -4 -3 -2 -2 -1 -1 -2 -2 -2 -1 -1 -2 -2 -2 -1 -1 -1 -1 -1 -2 -2 -2 -1 -1 -1 -1 -2 -3 -2 -1 -1 -1 -2 -2 -3 -3
-7 -6 -4 -3 -2 -2 -2 -2 -2 -2 -2 -2 -2 -2 -2 -2 -1 -1 -1 -1 -1 -1 -1 -1 -1 -1 -1 -1 -3 -3 -3 -2 -1 -1 -1 -1 -1 -2
-8 -5 -4 -3 -2 -2 -2 -2 -2 -2 -2 -2 -2 -2 -2 -2 -1 -1 -1 -1 -1 -1 -1 -2 -2 -1 -2 -2 -3 -2 -3 -2 -2 -2 -1 -0 2 1

GFSNE_925_temp_264.txt.gz
Temp
17 16 17 17 18 17 16 15 15 15 13 14 14 17 17 17 17 16 15 15 15 13 12 12 12 12 13 13 12 12 11 11 10 10 9 9 8 8
15 15 15 15 16 16 16 15 15 15 15 15 16 17 16 16 15 14 14 15 14 12 14 12 11 12 12 13 12 12 11 11 10 10 9 8 8 7
11 12 12 13 14 14 14 15 15 14 15 16 15 16 15 15 15 14 14 14 13 13 11 12 11 12 12 12 12 12 11 10 10 9 8 8 8 7
8 9 8 10 10 11 13 14 14 14 14 13 14 14 14 15 14 13 13 14 14 14 14 12 11 11 12 12 12 11 11 10 9 8 8 8 7 8
6 5 5 5 6 8 10 9 10 11 13 13 13 14 14 13 13 12 12 13 13 13 14 13 12 12 12 12 11 11 10 9 9 8 8 8 7 7
4 4 4 4 4 4 5 5 6 7 9 10 11 12 12 13 12 12 11 11 11 12 12 12 12 12 12 11 11 10 9 8 8 7 7 7 6 6
3 3 3 4 3 4 4 4 5 5 5 6 7 8 8 9 10 11 11 11 10 10 9 9 10 9 10 9 9 9 8 7 7 7 7 6 6 5
2 3 3 3 3 3 4 3 3 3 3 4 5 5 5 5 6 7 9 8 6 8 7 7 6 6 7 8 7 7 6 5 5 6 6 6 5 5
3 2 2 2 2 2 2 2 2 3 2 2 3 3 4 4 5 5 5 5 5 6 7 5 5 5 5 6 6 5 5 5 5 5 4 4 4 4
3 3 3 2 1 0 1 0 0 1 1 2 2 2 3 4 4 4 5 5 5 5 5 2 4 5 5 5 5 4 4 4 4 4 3 4 4 4
1 1 1 2 2 1 1 0 0 -0 1 2 1 2 2 2 3 3 4 4 2 3 4 5 3 3 3 3 3 3 3 3 4 3 3 3 3 4
-1 -1 1 1 1 1 1 1 -0 -0 -1 1 2 2 2 2 2 3 3 2 1 1 3 3 2 2 2 3 3 3 2 2 2 3 2 3 3 2
-1 -1 0 1 1 0 0 -0 -1 -1 -1 -0 1 1 1 1 2 2 3 3 3 2 3 3 2 2 2 1 2 2 2 2 2 2 2 1 1 1
-2 -0 -0 0 0 0 0 0 -0 -0 -0 -1 -0 0 0 1 1 1 2 2 2 3 2 2 2 2 -0 0 -0 1 1 1 2 2 2 1 1 2
-1 -1 0 0 -0 0 0 -0 -0 -0 -0 -1 -1 -1 -0 0 0 1 1 1 2 1 2 2 2 1 1 -0 -0 0 -0 1 1 1 1 1 1 1
-1 -1 -0 -0 0 -0 0 0 0 -0 -1 -1 -1 -1 -1 -0 -0 0 0 0 1 1 1 1 0 0 0 -0 -0 0 -0 -0 0 0 -0 -0 0 0
-1 -1 -1 -1 -1 -1 -0 -0 -0 -0 -1 -1 -1 -1 -1 -0 -0 -0 -0 -0 -1 -1 -1 -1 -1 -1 -1 -1 -1 -0 -1 -0 -0 0 -1 -2 -1 -1
-3 -3 -2 -2 -2 -1 -1 -1 -1 -1 -1 -1 -1 -1 -1 -1 -1 -1 -1 -1 -1 -1 -1 -2 -2 -2 -1 -1 -1 -1 -1 -1 -0 -0 -1 -2 -3 -2
-6 -5 -5 -4 -3 -3 -2 -2 -2 -1 -1 -1 -1 -1 -1 -1 -1 -1 -1 -1 -1 -1 -1 -2 -2 -1 -0 -1 -2 -1 -1 -1 -1 -1 -1 -2 -3 -3
-7 -7 -7 -6 -5 -4 -2 -2 -2 -2 -2 -2 -2 -2 -2 -2 -2 -2 -2 -1 -1 -1 -2 -2 -2 -1 -1 -2 -2 -3 -1 -1 -1 -3 -3 -3 -3 -2
-9 -8 -7 -6 -5 -4 -3 -2 -2 -2 -2 -2 -1 -2 -2 -2 -2 -2 -2 -1 -1 -2 -2 -2 -2 -1 -1 -2 -2 -3 -2 -1 -1 -2 -2 -2 -2 -3
-10 -8 -8 -7 -7 -4 -3 -2 -2 -2 -2 -2 -2 -2 -2 -2 -2 -2 -1 -2 -2 -2 -2 -2 -1 -1 -2 -2 -3 -3 -3 -2 -2 -2 -1 -1 -1 -1
-10 -10 -9 -9 -9 -8 -7 -6 -3 -2 -2 -3 -2 -2 -2 -2 -2 -2 -2 -2 -2 -2 -2 -2 -2 -1 -2 -3 -3 -3 -2 -2 -2 -2 -1 -0 1 -0

GFSNE_925_temp_270.txt.gz
Temp
10 10 10 10 10 10 11 11 13 14 14 16 15 16 16 15 15 15 15 15 14 14 15 15 13 13 13 13 12 13 13 12 13 13 12 12 11 11
5 7 6 6 7 8 9 9 10 11 13 14 14 15 15 15 15 15 15 15 15 15 14 14 14 14 14 12 12 12 12 12 12 12 12 12 11 11
5 4 3 4 4 5 5 6 6 7 9 11 12 13 13 13 13 14 13 14 14 14 15 15 14 14 13 13 12 11 11 11 12 12 11 11 11 11
3 2 2 3 3 3 3 4 4 5 6 8 8 9 9 10 10 10 11 12 12 13 13 13 13 13 13 13 12 12 11 11 11 11 11 11 11 11
2 2 1 1 2 2 3 3 3 3 3 4 6 6 5 6 7 7 8 9 10 10 11 11 12 13 12 12 12 12 11 10 10 11 11 11 11 11
2 2 1 1 1 1 2 2 2 2 3 4 4 4 5 5 4 4 5 5 6 8 9 9 10 11 11 11 11 11 10 10 10 10 10 11 11 11
2 2 1 1 0 0 0 0 1 1 2 2 3 3 4 4 4 3 4 5 5 6 7 8 8 8 9 9 10 10 10 10 10 10 10 11 10 9
1 0 0 0 0 0 0 -0 -0 -0 -0 0 2 2 2 2 2 2 3 4 4 6 4 5 6 6 6 7 8 8 8 8 7 8 9 9 9 8
-1 -2 -1 -1 -1 -0 0 0 0 0 -0 -1 -0 0 1 1 1 2 2 3 3 4 4 4 6 5 5 5 6 6 7 7 6 6 7 7 7 6
-2 -2 -2 -1 -1 -0 -0 0 0 0 0 -1 -1 -0 1 1 1 1 2 2 3 5 3 2 4 4 4 4 4 4 5 5 5 5 6 5 5 5
-2 -2 -2 -1 -1 -1 -0 -0 -0 0 1 -0 -1 0 1 1 1 1 2 2 2 3 3 2 2 2 3 3 3 3 3 4 4 4 5 5 4 4
-2 -2 -2 -1 -1 -1 -1 -1 -1 -1 -1 0 0 -0 -0 1 1 1 1 1 1 2 3 2 2 2 2 2 2 3 3 3 4 4 4 4 4 4
-4 -4 -3 -2 -2 -2 -1 -1 -1 -1 -1 -1 0 0 -0 0 1 1 1 1 1 1 2 2 2 2 1 1 2 2 2 2 2 3 3 3 3 3
-5 -5 -5 -4 -3 -2 -2 -1 -1 -1 -1 -1 -1 -1 -1 -0 0 0 0 1 1 1 1 2 2 1 1 0 0 1 2 1 1 2 1 1 1 1
-7 -7 -6 -6 -4 -4 -4 -3 -2 -2 -2 -2 -2 -1 -1 -0 -1 -1 -0 0 0 1 1 1 1 1 1 0 0 1 0 1 0 -0 0 1 1 1
-8 -8 -8 -8 -8 -7 -7 -6 -5 -4 -3 -2 -2 -2 -1 -1 -1 -1 -1 -0 -0 0 0 0 0 0 0 -0 -0 -0 -0 -1 0 -0 -0 0 0 -0
-9 -9 -9 -9 -8 -8 -7 -7 -7 -6 -5 -2 -2 -2 -2 -1 -1 -1 -1 -1 -1 -1 -0 -0 -1 -1 -1 -1 -1 -1 -1 -1 -1 -1 -1 -1 -0 -1
-11 -11 -10 -10 -9 -9 -8 -8 -8 -7 -5 -4 -2 -2 -2 -2 -2 -2 -1 -1 -1 -1 -1 -1 -1 -1 -1 -1 -2 -2 -1 -1 -1 -1 -2 -2 -2 -1
-12 -12 -11 -11 -11 -10 -10 -10 -9 -9 -8 -5 -3 -2 -2 -2 -2 -2 -2 -2 -1 -1 -1 -1 -2 -2 -1 -0 -2 -2 -2 -2 -2 -2 -3 -3 -3 -4
-14 -13 -13 -13 -12 -12 -11 -11 -11 -10 -9 -6 -2 -2 -2 -2 -2 -2 -2 -2 -1 -1 -1 -2 -2 -2 -1 -1 -1 -2 -2 -2 -2 -3 -3 -3 -3 -3
-15 -14 -14 -13 -13 -13 -13 -12 -12 -11 -10 -8 -6 -5 -3 -2 -2 -2 -2 -2 -2 -1 -2 -2 -2 -2 -2 -2 -2 -3 -3 -3 -2 -2 -2 -3 -3 -3
-16 -15 -15 -14 -14 -14 -14 -13 -13 -12 -11 -10 -9 -8 -6 -4 -3 -2 -2 -2 -2 -2 -2 -2 -2 -2 -2 -2 -2 -3 -3 -4 -3 -2 -2 -2 -2 -2
-17 -17 -16 -15 -15 -15 -15 -14 -14 -13 -12 -11 -11 -10 -8 -6 -4 -2 -2 -2 -2 -2 -2 -2 -2 -2 -2 -3 -2 -3 -4 -4 -5 -5 -5 -3 -3 -4

GFSNE_925_temp_276.txt.gz
Temp
11 11 11 11 8 8 9 10 11 13 17 19 18 15 12 12 11 12 11 12 12 12 13 13 13 13 13 13 13 13 13 14 14 15 14 13 13 13
10 10 10 9 9 8 8 7 8 9 12 16 15 14 11 11 11 11 12 10 11 11 12 12 13 13 13 13 13 13 13 13 13 13 13 13 12 12
8 8 8 8 9 8 8 7 6 6 10 11 12 11 9 9 9 10 11 11 12 10 10 11 11 12 12 12 12 12 13 13 13 12 13 13 12 12
7 7 7 8 8 7 8 7 5 6 6 8 8 9 9 9 9 9 10 11 11 11 9 9 10 11 11 11 12 12 12 12 13 12 12 12 12 12
6 5 5 5 5 5 6 6 6 5 6 6 8 8 9 9 8 9 9 9 10 10 9 9 8 9 10 10 11 11 11 11 11 12 12 11 11 12
3 2 2 2 2 2 4 3 3 3 4 4 6 7 6 5 5 7 6 7 8 9 9 9 8 9 8 8 9 9 9 9 10 10 10 11 11 11
1 2 1 0 0 0 1 1 2 2 2 3 3 3 4 4 4 3 4 5 6 8 8 8 9 9 10 8 7 7 7 8 8 9 9 10 10 10
1 1 1 1 -0 0 -0 -0 -0 1 1 2 2 2 2 2 2 3 3 3 5 7 6 7 8 7 7 7 6 6 5 6 7 8 8 9 10 10
2 1 2 2 -1 -1 -0 0 1 0 0 0 1 2 2 2 1 1 1 2 3 3 5 5 7 7 7 5 5 5 6 6 6 7 7 7 7 8
1 1 0 0 -2 -4 -3 -0 1 1 1 1 1 1 1 1 1 1 1 1 1 2 4 4 6 6 6 6 4 4 4 4 4 6 6 6 6 6
-0 -1 -3 -3 -5 -5 -3 -1 -1 0 1 1 0 -0 -0 0 0 -0 0 1 2 3 3 4 5 4 4 5 4 3 4 4 4 4 4 4 5 5
-1 -1 -3 -5 -6 -6 -5 -3 -1 -1 -3 -2 -1 0 0 0 0 0 0 1 1 2 3 3 4 5 4 3 3 3 4 4 4 4 4 4 4 4
-2 -3 -3 -6 -7 -6 -6 -4 -5 -6 -4 -2 -1 0 0 0 1 1 1 0 0 1 1 1 2 2 2 2 2 4 3 3 3 3 3 3 4 4
-4 -5 -5 -7 -7 -7 -6 -7 -6 -5 -4 -4 -3 -2 -1 -0 1 1 1 0 -1 -1 -0 0 0 1 2 2 3 3 3 2 3 3 2 2 2 3
-7 -8 -7 -7 -7 -6 -6 -6 -6 -5 -5 -5 -5 -4 -3 -2 -1 -1 0 0 -0 -1 -1 -0 -0 -0 0 1 2 2 2 2 2 2 2 2 1 2
-8 -7 -7 -7 -7 -6 -6 -6 -6 -6 -6 -6 -5 -5 -5 -3 -3 -1 -0 -1 -1 -1 -1 -1 -0 -0 -1 -0 1 1 1 1 1 1 1 1 1 1
-8 -6 -6 -7 -7 -7 -6 -6 -7 -7 -7 -7 -7 -6 -5 -4 -3 -1 -1 -1 -1 -1 -0 -0 -0 -1 -1 -0 0 0 1 1 1 1 0 0 -0 0
-7 -7 -7 -7 -8 -8 -8 -8 -7 -7 -7 -8 -7 -6 -6 -5 -4 -3 -1 -1 -1 -1 -0 -0 -0 -1 -1 -1 -1 -0 1 1 0 0 -0 -1 -1 -1
-8 -8 -8 -9 -9 -9 -8 -8 -8 -8 -9 -8 -8 -7 -6 -6 -5 -3 -2 -1 -1 -0 0 0 -1 -1 1 2 -0 -1 0 -0 -1 -1 -1 -1 -0 0
-9 -9 -9 -9 -9 -9 -9 -9 -9 -9 -9 -9 -9 -8 -7 -6 -6 -4 -3 -2 -1 -0 -0 -1 -1 -1 0 2 2 -1 -2 -2 -2 -2 -1 -1 -1 -1
-10 -10 -10 -10 -10 -10 -10 -10 -10 -10 -10 -9 -9 -9 -8 -8 -7 -6 -5 -4 -2 -0 0 -0 -1 -1 -1 -1 -0 -1 -2 -3 -3 -3 -2 -1 -1 -0
-11 -11 -11 -11 -11 -11 -11 -11 -11 -11 -10 -10 -10 -10 -9 -9 -8 -7 -6 -4 -3 -1 -1 -1 -1 -1 -1 -1 1 -0 -2 -3 -3 -4 -3 -3 -2 0
-12 -12 -12 -13 -12 -12 -12 -12 -12 -12 -12 -11 -11 -11 -11 -10 -9 -8 -7 -5 -4 -1 -1 -1 -2 -2 -1 -0 -0 -1 -2 -2 -2 -3 -4 -4 -4 -4

GFSNE_925_temp_282.txt.gz
Temp
14 13 13 12 12 11 10 11 12 13 14 17 16 14 12 12 12 12 12 12 12 12 12 11 11 11 11 12 13 13 12 12 13 13 14 15 15 16
9 9 8 9 9 9 9 9 10 10 11 13 12 12 11 11 11 11 11 11 12 12 10 11 11 11 11 11 11 12 12 12 12 13 13 14 14 14
8 9 9 9 9 9 8 9 9 9 8 10 10 10 11 11 11 10 10 11 11 10 10 11 10 10 9 10 10 11 11 12 12 13 13 13 13 14
5 5 6 6 7 7 8 7 7 8 7 8 9 9 8 8 8 8 8 9 9 10 10 10 10 10 9 9 9 10 10 11 11 12 13 13 13 13
2 2 2 3 3 4 5 5 4 5 6 6 6 6 6 6 5 6 6 6 6 7 7 9 9 9 10 9 9 9 9 9 9 10 11 12 13 12
2 1 1 1 0 1 1 1 2 3 3 4 5 5 4 4 4 4 3 3 3 3 6 7 8 8 9 9 8 8 8 8 8 9 10 10 10 12
1 0 -0 -1 -1 -1 -1 -0 0 1 2 2 3 2 2 3 3 2 2 2 2 2 4 4 4 5 6 7 8 8 8 7 7 8 9 9 10 10
-1 -0 -1 -2 -1 -3 -2 -0 0 1 1 2 2 1 2 2 2 1 1 2 1 2 1 2 2 3 4 6 7 8 7 7 6 6 7 8 9 10
-1 -1 -1 -3 -3 -4 -4 -2 -1 0 0 -0 -1 -2 -2 -1 -1 -0 0 0 0 1 1 1 2 2 3 4 6 6 6 6 5 4 4 6 8 9
-1 -2 -3 -5 -6 -5 -4 -3 -2 -1 -2 -3 -3 -2 -2 -1 -0 -0 -0 -0 0 0 1 1 2 2 3 3 4 5 6 5 4 3 3 4 5 7
-2 -3 -5 -6 -5 -5 -5 -4 -4 -4 -4 -4 -3 -2 -2 -2 -1 -1 -1 -1 -1 0 1 1 2 2 1 2 4 4 5 5 4 4 5 5 5 4
-3 -3 -5 -5 -5 -5 -5 -5 -5 -6 -5 -5 -4 -4 -4 -3 -3 -2 -2 -2 -1 -0 1 1 2 2 1 2 3 3 4 4 4 4 4 4 4 4
-5 -5 -5 -5 -5 -5 -5 -6 -6 -5 -5 -5 -5 -5 -4 -4 -4 -4 -4 -4 -3 -2 -1 -1 -0 -0 1 1 2 2 2 3 3 4 4 4 4 4
-7 -6 -6 -5 -5 -5 -6 -6 -5 -5 -6 -6 -5 -5 -5 -5 -5 -5 -4 -4 -3 -3 -1 -1 -0 -0 -1 -0 0 1 1 3 3 3 4 4 4 3
-7 -6 -5 -6 -6 -6 -6 -6 -6 -6 -6 -6 -6 -6 -6 -6 -5 -5 -4 -4 -3 -3 -2 -1 0 -0 -0 -1 -0 -0 -0 0 2 3 3 3 3 3
-6 -6 -6 -6 -6 -6 -7 -7 -7 -7 -7 -7 -7 -7 -7 -6 -6 -5 -5 -5 -4 -3 -2 -1 -1 -1 -1 -1 -1 -1 -1 -0 1 2 2 3 3 3
-6 -6 -7 -7 -7 -7 -7 -7 -8 -8 -8 -8 -8 -7 -7 -7 -6 -6 -6 -5 -5 -4 -3 -2 -2 -1 -1 -1 -1 -1 -1 -1 -0 1 1 1 2 2
-7 -8 -8 -8 -8 -8 -8 -9 -9 -9 -9 -9 -8 -8 -8 -7 -7 -7 -7 -6 -5 -5 -4 -3 -3 -2 -1 -1 -1 -1 -1 -0 -0 0 0 1 1 2
-8 -9 -9 -9 -9 -9 -10 -10 -10 -10 -10 -10 -9 -9 -9 -8 -8 -8 -8 -7 -6 -6 -5 -4 -4 -2 -1 0 0 1 -1 -1 -1 0 0 0 -0 0
-10 -10 -10 -10 -11 -11 -11 -11 -11 -11 -11 -11 -10 -10 -10 -10 -9 -9 -9 -9 -8 -7 -6 -5 -4 -2 -1 -1 -0 -0 -1 -1 -0 -1 -1 -1 -1 -1
-11 -11 -11 -11 -11 -11 -11 -11 -12 -12 -12 -11 -11 -11 -11 -10 -10 -10 -10 -10 -9 -8 -7 -5 -5 -4 -3 -2 -1 -1 -0 -1 -1 -1 -2 -2 -2 -1
-12 -12 -12 -12 -12 -12 -12 -12 -13 -13 -12 -12 -12 -11 -11 -11 -12 -11 -11 -10 -9 -8 -7 -6 -5 -3 -2 -1 -1 -1 -2 -2 -2 -2 -3 -3 -2 -1
-13 -13 -13 -13 -13 -13 -13 -14 -13 -13 -13 -12 -12 -12 -13 -13 -12 -12 -11 -10 -9 -8 -7 -5 -2 -1 -1 -1 -1 -1 -2 -2 -3 -3 -3 -3 -3 -3

GFSNE_925_temp_288.txt.gz
Temp
5 8 7 6 8 10 12 14 17 14 11 8 8 8 9 9 8 9 10 11 11 11 10 10 10 10 10 11 10 10 10 9 10 11 12 12 12 12
0 1 2 3 3 3 4 4 7 13 10 7 6 7 7 7 7 8 8 9 8 8 8 9 9 9 9 9 9 9 9 9 10 11 11 11 12 12
-1 -1 -1 0 -1 1 2 2 3 7 7 6 5 5 5 6 6 7 7 7 7 7 7 7 8 9 9 8 9 9 9 9 9 9 10 10 11 11
-3 -3 -3 -2 -1 -1 -0 0 1 2 5 4 3 3 3 4 4 5 5 6 5 6 6 6 6 7 7 8 8 8 8 8 8 8 9 9 9 10
-4 -4 -4 -3 -3 -2 -2 -1 -0 0 1 2 1 2 2 2 2 2 2 3 3 4 4 4 4 5 6 6 7 6 6 6 7 7 7 8 8 9
-5 -5 -4 -4 -3 -3 -3 -2 -2 -1 0 0 1 0 -0 -0 -0 -1 -0 0 1 2 2 2 3 4 5 5 5 5 5 5 5 6 6 6 7 8
-5 -5 -4 -4 -4 -3 -4 -4 -3 -3 -3 -3 -3 -3 -3 -3 -3 -2 -2 -1 0 0 0 1 2 2 3 3 3 4 4 4 4 4 5 5 6 6
-5 -5 -5 -5 -5 -4 -4 -4 -4 -4 -4 -4 -4 -4 -3 -4 -4 -3 -3 -2 -2 -0 -1 -1 -0 0 1 1 2 2 3 3 3 4 4 4 4 5
-5 -5 -5 -5 -5 -5 -5 -5 -5 -5 -5 -5 -5 -5 -4 -4 -4 -4 -4 -3 -3 -2 -2 -2 -1 -0 -0 0 2 2 2 3 3 4 4 4 4 4
-5 -5 -5 -5 -5 -5 -5 -5 -5 -6 -5 -5 -5 -5 -5 -5 -5 -5 -5 -4 -3 -1 -2 -3 -1 -2 -1 0 2 2 1 2 2 3 3 3 4 3
-6 -5 -6 -6 -5 -6 -6 -6 -6 -6 -6 -6 -6 -6 -6 -6 -6 -5 -6 -5 -5 -4 -4 -3 -3 -3 -2 -1 0 0 1 1 2 2 2 2 3 4
-6 -6 -6 -6 -6 -6 -7 -7 -7 -7 -7 -6 -6 -6 -6 -6 -6 -6 -6 -6 -5 -5 -4 -4 -3 -3 -2 -1 -1 -0 0 1 1 1 1 2 3 3
-7 -7 -7 -7 -7 -7 -7 -7 -8 -8 -8 -8 -8 -8 -8 -8 -8 -7 -7 -7 -6 -6 -5 -5 -4 -5 -3 -2 -2 -1 -0 0 0 0 -0 0 1 2
-8 -8 -8 -8 -8 -8 -8 -8 -9 -9 -9 -9 -9 -9 -9 -8 -8 -8 -7 -7 -7 -7 -6 -6 -6 -5 -4 -3 -2 -1 -1 0 0 0 -0 -1 -1 1
-9 -9 -10 -10 -10 -10 -10 -10 -10 -10 -10 -10 -10 -10 -9 -9 -9 -9 -8 -8 -8 -8 -7 -6 -5 -5 -5 -4 -3 -3 -2 -1 -1 -1 -1 -1 -2 -1
-10 -11 -11 -11 -11 -11 -11 -11 -11 -11 -11 -11 -11 -11 -11 -10 -9 -10 -9 -9 -9 -8 -8 -7 -7 -6 -6 -6 -5 -4 -3 -2 -1 -2 -1 -1 -1 -1
-12 -12 -12 -12 -12 -12 -12 -12 -12 -12 -12 -12 -12 -12 -11 -11 -11 -10 -10 -10 -9 -9 -9 -8 -8 -8 -8 -7 -6 -6 -5 -4 -3 -2 -2 -2 -1 -1
-13 -13 -13 -13 -13 -13 -13 -13 -13 -13 -13 -13 -13 -13 -12 -12 -11 -11 -11 -10 -10 -10 -9 -9 -9 -9 -7 -5 -4 -5 -5 -4 -2 -2 -1 -2 -1 -1
-14 -14 -14 -14 -13 -14 -13 -14 -14 -14 -14 -14 -14 -14 -13 -13 -12 -12 -11 -11 -11 -10 -10 -10 -10 -9 -8 -7 -5 -3 -4 -2 -2 -2 -2 -2 -1 -1
-14 -14 -14 -14 -14 -14 -14 -14 -14 -14 -14 -14 -14 -14 -13 -13 -13 -12 -12 -12 -12 -11 -11 -10 -9 -8 -7 -6 -6 -5 -4 -5 -4 -3 -2 -2 -2 -1
-15 -15 -14 -14 -15 -14 -14 -14 -14 -14 -14 -14 -14 -14 -14 -14 -14 -14 -13 -13 -13 -12 -11 -10 -9 -9 -9 -8 -7 -6 -4 -2 -2 -2 -1 -2 -1 -2
-16 -15 -15 -15 -15 -15 -15 -15 -15 -14 -14 -15 -15 -14 -14 -14 -14 -14 -13 -13 -12 -12 -11 -10 -9 -9 -8 -7 -5 -4 -2 -1 -1 -1 -2 -2 -2 -4
-16 -16 -16 -16 -15 -15 -16 -15 -15 -15 -15 -15 -15 -15 -14 -14 -14 -13 -13 -13 -12 -12 -11 -10 -9 -8 -7 -5 -4 -3 -1 -1 -2 -2 -1 -2 -2 -2